Regional Weather Roundup
Issued by NWS Albany, NY

Home | Current Version | Previous Version | Text Only | Print | Product List | Glossary On
Versions: 1 2 3 4 5 6 7 8 9 10 11 12 13 14 15 16 17 18 19 20 21 22 23 24 25 26 27
000
ASUS41 KALY 201310
RWRALY

NEW YORK STATE HOURLY WEATHER ROUNDUP
NATIONAL WEATHER SERVICE ALBANY NY
900 AM EDT FRI OCT 20 2017

NOTE: "FAIR" INDICATES FEW OR NO CLOUDS BELOW 12,000 FEET WITH NO
SIGNIFICANT WEATHER AND/OR NO OBSTRUCTIONS TO VISIBILITY.

NYZ032-033-038>043-046>054-057>066-NYZ062>081-082-084-201400-
EAST


CITY           SKY/WX    TMP DP  RH WIND       PRES   REMARKS
ALBANY         MOSUNNY   56  42  59 NW14      30.15R
GLENS FALLS    SUNNY     50  41  71 CALM      30.13R
POUGHKEEPSIE   SUNNY     51  45  79 CALM      30.15R
NEWBURGH       SUNNY     55  45  67 W14       30.17R
MONTGOMERY     SUNNY     57  41  55 W10       30.16R
WHITE PLAINS   SUNNY     59  44  57 NW9       30.15R
ISLIP          MOSUNNY   61  49  64 NW9       30.13R
NEW YORK CITY  MOSUNNY   62  43  49 NW12      30.16R
CENTRAL PARK   SUNNY     60  43  53 W6        30.19R
$$

NYZ005>009-017-018-044>046-055-056-201400-
CENTRAL


CITY           SKY/WX    TMP DP  RH WIND       PRES   REMARKS
FULTON         MOSUNNY   52  44  74 SW5       30.22R
SYRACUSE       MOSUNNY   53  42  66 W8        30.21R
ROME           SUNNY     49  46  90 NW5       30.21R
ELMIRA         SUNNY     49  46  90 W10       30.24R
BINGHAMTON     SUNNY     50  37  61 W6        30.21R
MONTICELLO     SUNNY     51  39  63 W6        30.19R
$$

NYZ026>034-041>043-087-201400-
NORTH


CITY           SKY/WX    TMP DP  RH WIND       PRES   REMARKS
WATERTOWN      SUNNY     54  44  69 W7        30.20R
FORT DRUM      NOT AVBL
OGDENSBURG     FAIR      53  42  67 W6        30.17R
MASSENA        SUNNY     52  40  63 W14       30.16R
SARANAC LAKE   SUNNY     46  37  71 W7        30.12R
PLATTSBURGH    SUNNY     55  36  48 MISG      30.10R
$$

NYZ001>004-010>016-019>021-085-201400-
WEST


CITY           SKY/WX    TMP DP  RH WIND       PRES   REMARKS
NIAGARA FALLS  SUNNY     51  43  74 CALM      30.26R
BUFFALO        MOSUNNY   49  42  77 S5        30.27R
DUNKIRK        SUNNY     50  46  86 SW3       30.29R
JAMESTOWN      SUNNY     48  43  82 S3        30.30R
WELLSVILLE     SUNNY     52  39  61 W7        30.28R
ROCHESTER      MOSUNNY   50  42  74 SW7       30.26R
$$

             KEY
       WCI = WIND CHILL INDEX
       VSB = VISIBILITY
       HX  = HEAT INDEX
$$




USA.gov is the U.S. government's official web portal to all federal, state and local government web resources and services.